LA4GY-1 Weather Reports


Display with metric or nautical units.
time (UTC)temp
F
wind
direction
speed
MPH
gust
MPH
rain 1hr
in
rain 24hr
in
rain mn
in
humidity
%
barometer
mb
20260905164445 55 162 0.0 0.0 0.13 0.48 0.48 93 1003.2
20260905163445 55 162 0.0 0.0 0.18 0.48 0.48 93 1003.1
20260905162415 55 162 0.0 0.0 0.20 0.48 0.48 93 1003.1
20260905161414 55 151 0.0 0.0 0.20 0.47 0.47 93 1002.9
20260905160414 55 151 0.0 0.0 0.25 0.47 0.47 92 1002.9
20260905155344 56 129 0.0 0.0 0.30 0.46 0.46 92 1002.7
20260905154314 56 130 0.0 0.0 0.29 0.34 0.34 92 1002.8
20260905153244 56 56 0.0 0.0 0.24 0.29 0.29 93 1002.6
20260905152244 57 56 0.0 0.0 0.23 0.28 0.28 92 1002.4
20260905151244 57 56 0.0 0.0 0.23 0.27 0.27 91 1002.3
20260905150214 57 56 0.0 0.0 0.20 0.21 0.21 90 1002.3
20260905145214 58 56 0.0 0.0 0.16 0.17 0.16 90 1002.2
20260905144144 59 104 0.0 0.0 0.05 0.06 0.05 88 1002.1
20260905143114 60 106 0.0 0.0 0.05 0.06 0.05 87 1002.0
20260905142114 61 106 0.0 0.0 0.05 0.06 0.05 86 1001.9
20260905141044 61 106 0.0 0.0 0.04 0.06 0.04 84 1001.8
20260905140014 62 108 0.0 0.0 0.02 0.03 0.02 81 1001.7
20260905135014 63 107 0.0 0.0 0.00 0.02 0.00 75 1001.6
20260905134014 63 107 0.0 0.0 0.00 0.02 0.00 72 1001.5
20260905132944 63 107 0.0 0.0 0.00 0.02 0.00 69 1001.4
20260905131944 63 107 0.0 0.0 0.00 0.02 0.00 69 1001.2
20260905130944 63 158 0.0 0.0 0.00 0.02 0.00 71 1001.3
20260905125944 63 173 0.0 0.0 0.00 0.02 0.00 68 1001.3
20260905124944 63 173 0.0 0.0 0.00 0.02 0.00 69 1001.1
20260905123944 63 173 0.0 0.0 0.00 0.02 0.00 67 1001.2
20260905122915 63 173 0.0 0.0 0.00 0.02 0.00 69 1001.2
20260905121844 62 173 0.0 0.0 0.00 0.02 0.00 69 1001.1
20260905120814 62 173 0.0 0.0 0.00 0.02 0.00 68 1001.0
20260905115744 62 173 0.0 0.0 0.00 0.02 0.00 68 1001.1
20260905114744 62 173 0.0 0.0 0.00 0.02 0.00 69 1001.0
20260905113744 62 173 0.0 0.0 0.00 0.02 0.00 68 1001.0
20260905112744 62 173 0.0 0.0 0.00 0.02 0.00 70 1001.0
20260905111744 62 173 0.0 0.0 0.00 0.02 0.00 69 1000.9
20260905110744 62 177 0.0 0.0 0.00 0.02 0.00 70 1000.9
20260905105744 62 177 0.0 0.0 0.00 0.02 0.00 71 1001.0
20260905104744 61 192 0.0 0.0 0.00 0.02 0.00 73 1000.9
20260905103744 61 229 0.0 0.0 0.00 0.02 0.00 72 1000.8
20260905102744 61 167 0.0 0.0 0.00 0.02 0.00 71 1000.8
20260905101714 60 166 0.0 0.0 0.00 0.02 0.00 73 1000.8
20260905100714 60 166 0.0 0.0 0.00 0.02 0.00 72 1000.8
20260905095714 60 172 0.0 0.0 0.00 0.02 0.00 73 1000.7
20260905094714 59 172 0.0 0.0 0.00 0.02 0.00 78 1000.7
20260905093714 59 168 0.0 0.0 0.00 0.02 0.00 79 1000.7
20260905092644 59 167 0.0 0.0 0.00 0.02 0.00 79 1000.6
20260905091644 58 105 0.0 0.0 0.00 0.02 0.00 76 1000.4
20260905090644 58 140 0.0 0.0 0.00 0.02 0.00 77 1000.3
20260905085614 58 140 0.0 0.0 0.00 0.02 0.00 77 1000.3
20260905084544 58 154 0.0 0.0 0.00 0.02 0.00 79 1000.3
20260905083544 57 115 0.0 0.0 0.00 0.02 0.00 80 1000.3
20260905082544 57 115 0.0 0.0 0.00 0.02 0.00 82 1000.4
20260905081543 56 115 0.0 0.0 0.00 0.02 0.00 84 1000.3
20260905080543 56 115 0.0 0.0 0.00 0.02 0.00 83 1000.3
20260905075513 56 115 0.0 0.0 0.00 0.02 0.00 83 1000.2
20260905074443 56 115 0.0 0.0 0.00 0.02 0.00 86 1000.2
20260905073443 55 115 0.0 0.0 0.00 0.02 0.00 86 1000.1
20260905072443 55 115 0.0 0.0 0.00 0.02 0.00 85 1000.2
20260905071443 55 115 0.0 0.0 0.00 0.02 0.00 84 1000.1
20260905070443 55 115 0.0 0.0 0.00 0.02 0.00 84 1000.1
20260905065443 56 115 0.0 0.0 0.00 0.02 0.00 84 1000.0
20260905064443 55 115 0.0 0.0 0.00 0.02 0.00 83 999.8
20260905063413 55 115 0.0 0.0 0.00 0.02 0.00 83 999.7
20260905062343 55 115 0.0 0.0 0.00 0.02 0.00 84 999.7
20260905061343 54 167 0.0 0.0 0.00 0.02 0.00 85 999.7
20260905060313 54 333 0.0 0.0 0.00 0.02 0.00 88 999.6
20260905055313 53 333 0.0 0.0 0.00 0.02 0.00 88 999.5
20260905054313 53 321 0.0 0.0 0.00 0.02 0.00 88 999.5
20260905053313 53 320 0.0 0.0 0.00 0.02 0.00 88 999.4
20260905052313 53 326 0.0 0.0 0.00 0.02 0.00 88 999.4
20260905051313 53 330 0.0 0.0 0.00 0.02 0.00 88 999.4
20260905050313 53 330 0.0 0.0 0.00 0.02 0.00 88 999.4
20260905045313 53 330 0.0 0.0 0.00 0.02 0.00 88 999.3
20260905044313 53 330 0.0 0.0 0.00 0.02 0.00 88 999.3
20260905043243 52 317 0.0 0.0 0.00 0.02 0.00 87 999.3
20260905042213 52 331 0.0 0.0 0.00 0.02 0.00 88 999.2
20260905041143 52 332 0.0 0.0 0.00 0.02 0.00 88 999.2
20260905040113 52 337 0.0 0.0 0.00 0.02 0.00 88 999.1
20260905035113 52 337 0.0 0.0 0.00 0.02 0.00 88 999.1
20260905034113 52 336 0.0 0.0 0.00 0.02 0.00 88 999.1
20260905033043 52 332 0.0 0.0 0.00 0.02 0.00 88 999.1
20260905032043 52 328 0.0 0.0 0.00 0.02 0.00 87 999.0
20260905031013 52 331 0.0 0.0 0.00 0.02 0.00 87 998.9
20260905030013 52 41 0.0 0.0 0.00 0.02 0.00 87 998.9
20260905024943 52 355 0.0 0.0 0.00 0.02 0.00 87 999.0
20260905023943 52 328 0.0 0.0 0.00 0.02 0.00 87 998.9
20260905022943 53 333 0.0 0.0 0.00 0.02 0.00 87 998.9
20260905021943 53 346 0.0 0.0 0.00 0.02 0.00 87 998.7
20260905020943 53 355 0.0 0.0 0.00 0.02 0.00 86 998.6
20260905015943 53 336 0.0 0.0 0.00 0.02 0.00 86 998.7
20260905014913 54 334 0.0 0.0 0.00 0.02 0.00 85 998.7
20260905013843 54 355 0.0 0.0 0.00 0.02 0.00 85 998.7
20260905012843 54 355 0.0 0.0 0.00 0.02 0.00 85 998.8
20260905011843 54 313 0.0 0.0 0.00 0.02 0.00 85 998.8
20260905010813 54 322 0.0 0.0 0.00 0.02 0.00 85 998.8
20260905005813 54 326 0.0 0.0 0.00 0.02 0.00 84 998.7
20260905004813 54 336 0.0 0.0 0.00 0.02 0.00 84 998.7
20260905003813 54 336 0.0 0.0 0.00 0.02 0.00 84 998.7
20260905002813 54 336 0.0 0.0 0.00 0.02 0.00 84 998.7
20260905001813 54 339 0.0 0.0 0.00 0.02 0.00 85 998.7
20260905000813 54 321 0.0 0.0 0.00 0.02 0.00 84 998.7
20260904235813 54 339 0.0 0.0 0.00 0.02 0.00 84 998.7
20260904234743 54 355 0.0 0.0 0.00 0.02 0.00 85 998.8
20260904233713 54 355 0.0 0.0 0.00 0.02 0.00 85 998.8
20260904232712 55 355 0.0 0.0 0.00 0.02 0.00 84 998.8
20260904231712 55 355 0.0 0.0 0.00 0.02 0.00 84 998.9
20260904230712 55 355 0.0 0.0 0.00 0.02 0.00 84 998.9
20260904225712 55 355 0.0 0.0 0.00 0.02 0.00 85 999.0
20260904224712 55 17 0.0 0.0 0.00 0.02 0.00 85 999.1
20260904223712 55 19 0.0 0.0 0.00 0.02 0.00 85 998.9
20260904222712 55 325 0.0 0.0 0.00 0.02 0.00 85 998.9
20260904221712 55 325 0.0 0.0 0.00 0.02 0.00 84 998.8
20260904220712 55 325 0.0 0.0 0.00 0.02 0.00 84 998.9
20260904215642 55 336 0.0 0.0 0.00 0.02 0.02 85 998.9
20260904214642 55 332 0.0 0.0 0.00 0.02 0.02 85 998.8
20260904213642 55 332 0.0 0.0 0.00 0.02 0.02 85 998.7
20260904212642 54 332 0.0 0.0 0.00 0.02 0.02 86 998.7
20260904211612 54 332 0.0 0.0 0.00 0.02 0.02 87 998.6
20260904210542 54 336 0.0 0.0 0.00 0.02 0.02 87 998.6
20260904205542 54 324 0.0 0.0 0.00 0.02 0.02 87 998.5
20260904204512 54 345 0.0 0.0 0.00 0.02 0.02 87 998.5
20260904203512 54 329 0.0 0.0 0.00 0.02 0.02 87 998.5
20260904202512 54 17 0.0 0.0 0.00 0.02 0.02 87 998.6
20260904201512 54 346 0.0 0.0 0.00 0.02 0.02 88 998.6
20260904200512 53 340 0.0 0.0 0.00 0.02 0.02 89 998.7
20260904195512 53 333 0.0 0.0 0.00 0.02 0.02 89 998.6
20260904194442 53 325 0.0 0.0 0.00 0.02 0.02 89 998.7
20260904193412 53 340 0.0 0.0 0.00 0.02 0.02 89 998.6
20260904192342 53 348 0.0 0.0 0.00 0.02 0.02 88 998.6
20260904191342 54 348 0.0 0.0 0.00 0.02 0.02 88 998.5
20260904190312 54 348 0.0 0.0 0.00 0.02 0.02 88 998.4
20260904185312 54 348 0.0 0.0 0.00 0.02 0.02 88 998.4
20260904184312 54 348 0.0 0.0 0.00 0.02 0.02 89 998.4
20260904183312 54 327 0.0 0.0 0.00 0.02 0.02 89 998.4
20260904182312 54 355 0.0 0.0 0.00 0.02 0.02 89 998.4
20260904181242 55 313 0.0 0.0 0.00 0.02 0.02 89 998.3
20260904180212 55 313 0.0 0.0 0.00 0.02 0.02 89 998.2
20260904175212 55 335 0.0 0.0 0.00 0.02 0.02 88 998.2
20260904174212 55 355 0.0 0.0 0.00 0.02 0.02 88 998.2
20260904173142 56 355 0.0 0.0 0.00 0.02 0.02 88 998.3
20260904172142 56 328 0.0 0.0 0.00 0.02 0.02 88 998.2
20260904171142 56 340 0.0 0.0 0.00 0.03 0.02 88 998.2
20260904170142 56 325 0.0 0.0 0.00 0.04 0.02 88 998.2